Temperature
9 9 9 10 10 11 11 11 11 12 13 13 12 12 13 14 14 13 15 16 17 19 20 20 20 19 19 19 18 18 17 17 16 14 13 13 13 13 13 12 12 11 11 10
8 9 10 11 11 11 11 11 11 12 13 13 12 12 13 13 13 14 15 16 17 19 19 19 19 19 19 19 18 18 18 17 17 16 16 16 15 14 13 12 12 11 11 10
8 10 11 11 10 10 10 10 11 12 13 13 13 12 12 13 13 15 16 17 18 19 19 20 20 19 19 19 19 19 19 18 18 17 16 14 12 11 11 11 12 11 11 11
8 10 10 10 11 10 11 11 11 12 12 11 12 11 11 12 12 12 13 15 17 18 19 19 20 20 20 20 20 19 19 19 18 17 15 14 13 13 14 13 13 12 11 11
8 9 10 10 11 11 11 12 11 11 11 10 11 10 10 11 12 13 13 15 17 19 19 19 20 20 20 20 20 20 19 19 18 17 16 15 15 15 14 13 12 12 11 11
8 9 10 10 11 11 11 11 11 10 10 10 10 10 10 10 12 13 13 15 17 19 19 19 20 20 20 20 20 20 19 19 18 18 17 16 15 15 14 13 12 12 11 11
7 8 9 10 10 10 11 10 9 9 9 10 10 10 11 11 12 13 14 15 18 19 19 19 19 20 20 20 20 20 19 19 18 18 17 16 16 15 14 14 13 12 11 11
6 7 8 9 10 9 10 10 10 10 10 9 9 10 11 11 12 13 15 16 17 18 19 19 19 19 20 20 19 19 19 19 18 18 17 16 16 15 14 14 13 13 13 12
5 6 8 9 9 10 9 10 10 10 9 9 8 9 9 10 11 12 12 14 16 17 18 19 19 19 19 19 19 19 19 18 18 18 17 16 15 14 14 14 13 12 12 12
4 5 7 8 9 10 10 9 9 9 9 9 9 8 10 11 12 12 12 13 15 17 18 18 19 19 19 19 19 19 18 18 18 17 17 16 15 15 14 13 12 12 12 12
3 4 5 7 8 8 8 9 9 9 9 9 9 10 10 12 13 13 13 14 15 17 18 18 18 18 18 18 18 18 18 18 17 17 16 16 15 14 13 12 12 12 11 11
3 4 4 6 7 8 8 8 7 8 8 8 8 10 12 11 12 12 13 14 15 16 17 17 18 18 18 18 18 18 18 17 17 16 16 15 14 13 12 12 12 11 11 11
3 3 3 5 6 6 7 7 7 7 7 7 8 10 11 10 11 11 12 14 15 16 17 17 17 18 18 18 18 18 17 17 16 16 15 14 13 13 12 12 11 11 11 11
4 2 3 4 4 4 5 6 6 7 7 7 7 9 11 11 11 11 12 13 14 15 16 16 17 17 17 17 17 17 17 17 16 15 14 14 13 13 12 11 11 11 11 10
2 2 2 3 4 4 5 6 6 6 7 7 8 8 10 10 10 11 12 12 13 14 15 16 16 17 17 17 17 17 17 16 15 15 14 13 13 12 12 11 11 10 10 10
1 1 2 3 4 5 5 6 7 7 7 7 8 8 9 10 10 10 11 12 12 13 14 15 16 16 17 17 17 17 16 16 15 15 14 13 12 12 11 10 10 10 10 10
0 0 1 2 4 4 4 6 7 7 8 8 8 9 8 9 9 9 11 12 12 13 14 15 15 16 16 17 17 16 16 15 15 14 13 13 12 11 11 10 10 10 10 9
0 0 1 2 3 3 5 6 7 7 7 8 8 8 8 9 10 11 12 12 13 13 13 14 15 15 16 16 16 16 16 15 15 14 13 12 11 11 10 10 9 9 9 9
1 1 1 1 2 3 4 5 6 6 6 7 7 7 8 9 9 10 12 12 12 13 13 14 14 15 15 16 16 16 15 15 14 14 13 12 11 11 10 9 9 9 9 9
1 1 1 1 2 3 5 5 6 6 6 6 6 6 6 7 7 9 11 11 12 12 13 13 14 14 15 15 15 15 15 15 14 14 13 12 11 10 10 9 9 9 8 8
0 0 0 0 1 3 4 4 6 5 5 6 6 6 6 6 8 9 10 11 11 12 12 13 13 13 14 15 15 15 15 15 14 13 12 12 11 10 9 9 9 8 8 8
-0 -0 -0 0 1 2 3 4 4 4 5 5 5 6 6 7 8 8 9 10 11 11 12 12 12 13 13 14 14 14 15 14 14 13 12 11 11 10 9 8 8 8 7 7
-0 0 -0 0 2 3 3 4 5 5 5 5 5 6 6 6 7 7 8 9 10 10 11 11 12 12 13 13 13 14 14 14 13 13 12 11 10 9 9 8 8 7 7 7
-1 -0 -0 -0 1 2 3 4 4 4 5 5 5 6 6 6 6 6 7 8 9 10 10 11 11 11 12 12 13 13 13 13 12 12 11 10 10 9 8 8 7 7 7 6
-1 -1 -1 -1 1 2 3 4 4 4 4 5 5 6 6 6 6 6 7 8 8 9 10 10 10 11 11 12 12 12 12 12 12 11 10 10 9 8 8 7 7 7 7 6
-1 -1 -1 0 1 1 2 3 4 4 4 4 5 5 6 6 6 6 7 7 8 9 9 10 10 10 11 11 11 11 11 11 11 10 10 9 9 8 7 7 6 6 6 5
Wind_Speed
11 11 18 22 22 13 9 9 10 8 7 9 12 14 15 11 9 11 11 11 13 16 16 13 14 14 13 14 16 19 20 19 17 15 15 15 15 14 12 12 16 19 19 18
9 22 22 15 15 15 11 11 10 6 6 8 8 13 12 13 11 11 13 14 14 14 12 12 12 13 16 18 19 20 21 21 20 18 17 14 12 10 10 9 13 18 19 19
22 15 17 16 15 19 18 17 13 7 1 3 4 9 10 10 9 10 11 12 12 15 15 14 13 15 16 18 21 20 23 23 23 20 12 9 7 6 8 12 13 15 19 19
19 15 15 19 20 19 23 16 12 9 5 5 5 7 9 9 10 12 13 12 13 14 14 13 12 13 16 19 19 20 22 22 22 20 17 19 15 15 16 12 12 12 17 18
14 15 18 22 23 20 10 10 12 11 10 8 6 7 9 6 11 14 14 15 15 15 14 14 14 14 15 16 16 18 19 21 21 22 22 22 18 15 10 9 12 13 13 15
13 9 14 15 13 14 7 6 6 7 8 15 17 11 9 9 13 10 11 13 15 15 14 14 12 11 11 11 12 14 17 19 20 22 23 23 21 16 13 13 15 14 11 12
11 11 8 8 11 12 11 9 8 9 11 12 11 12 11 11 11 12 12 13 13 12 12 12 12 11 11 12 13 14 17 19 20 22 23 23 22 20 19 18 17 15 11 11
10 11 11 8 12 12 18 16 12 10 9 6 8 13 10 11 10 11 12 12 11 11 11 11 12 11 11 12 12 14 17 18 19 21 22 21 20 17 15 16 14 16 14 14
6 8 6 9 7 11 13 15 9 5 3 4 7 7 8 6 8 10 11 11 13 12 11 11 10 10 10 11 12 14 16 16 18 20 20 19 19 18 16 15 13 13 11 11
4 5 4 7 5 9 9 10 8 9 9 8 6 7 7 8 13 13 12 13 14 11 10 9 8 8 8 9 9 10 13 15 15 17 17 16 18 18 16 14 15 14 13 13
3 4 3 5 9 11 7 10 7 7 6 7 6 7 8 12 13 13 14 12 11 11 9 8 7 6 6 6 7 9 10 11 12 14 14 14 15 15 15 15 16 15 14 14
3 2 4 7 5 7 8 8 7 8 6 6 5 8 5 9 8 8 10 9 8 7 6 5 5 5 5 6 7 8 9 10 11 12 12 13 13 14 15 15 15 15 15 15
2 1 2 2 2 2 5 6 7 5 4 5 6 8 3 3 5 6 7 7 6 5 5 3 4 4 5 5 6 7 8 9 9 10 11 12 12 14 15 15 14 14 15 14
2 2 4 5 3 3 7 9 10 7 7 8 10 8 5 4 5 5 5 5 4 3 4 3 3 4 4 5 5 6 7 7 8 10 11 12 13 14 14 14 14 14 14 14
1 3 5 8 8 7 9 13 14 12 11 12 13 12 10 8 7 5 3 3 2 3 3 4 4 4 4 4 5 5 6 7 8 10 11 11 11 11 11 12 13 13 13 13
1 4 4 6 7 8 10 14 17 18 17 16 14 14 9 6 4 3 3 2 3 4 5 5 5 4 5 6 6 6 6 7 9 10 10 9 10 10 11 11 12 12 12 12
3 3 3 5 5 6 10 12 15 15 16 18 19 14 3 5 6 7 6 5 6 6 6 6 6 7 7 7 7 7 7 7 9 9 9 9 10 10 10 10 11 12 12 11
6 4 3 4 2 8 7 4 6 10 10 11 10 5 5 7 8 8 6 5 5 6 6 7 6 6 6 5 5 6 6 8 9 9 9 9 10 10 10 10 11 11 10 10
10 7 3 3 4 7 7 3 5 8 9 6 7 5 5 5 5 7 6 4 7 7 7 7 7 6 5 5 6 7 7 7 9 9 10 10 10 10 10 11 11 8 9 9
8 8 5 4 4 6 4 5 4 5 7 4 4 4 3 1 5 9 6 6 8 8 6 5 4 3 4 4 7 9 8 9 10 10 9 9 10 11 11 10 9 7 8 9
4 6 8 7 6 7 6 5 2 4 5 5 5 5 5 7 12 9 6 7 8 8 6 5 3 4 4 5 7 8 8 10 9 8 8 9 9 10 10 9 8 9 8 9
5 5 6 5 7 7 3 2 2 4 5 5 6 6 7 11 12 8 7 7 6 6 5 4 3 4 3 5 7 8 9 7 7 9 9 9 9 8 8 10 9 9 10 9
6 6 5 7 7 5 3 5 6 4 6 7 7 8 8 10 10 9 8 7 6 6 5 4 4 3 2 4 7 9 7 8 9 10 10 9 9 8 9 10 10 9 8 7
5 3 4 6 8 9 9 8 8 7 9 10 9 9 8 9 10 9 8 6 6 5 4 3 3 3 3 3 5 7 7 9 10 11 10 10 10 9 8 7 8 8 8 8
7 4 5 8 10 10 9 8 9 10 10 10 11 9 8 8 10 9 8 7 6 5 3 3 4 4 4 3 4 6 8 10 11 10 10 10 9 10 8 7 6 7 6 8
7 8 7 10 8 8 11 12 12 12 13 12 11 11 10 7 9 8 7 5 4 4 3 2 2 3 3 4 4 5 7 10 12 10 10 9 9 8 8 8 6 7 7 9
Wind_Direction
190 199 211 208 207 211 192 194 212 218 199 188 219 232 239 238 217 227 229 223 222 226 231 225 216 209 201 195 194 195 196 196 190 192 193 195 199 197 196 195 192 189 189 187
195 217 218 207 205 212 213 216 221 235 207 201 230 243 240 234 224 221 224 225 224 227 233 227 217 207 203 201 200 199 199 196 194 197 198 199 195 195 195 190 192 192 190 189
214 218 205 204 206 210 217 217 215 213 199 218 243 270 249 244 227 229 227 226 223 221 226 225 216 210 207 205 203 202 201 199 198 196 189 178 167 166 185 195 198 195 193 191
223 225 205 207 211 206 225 215 208 213 219 241 204 261 259 239 242 235 233 230 230 228 225 224 218 211 208 210 206 203 201 200 198 192 189 187 193 198 200 196 196 191 192 192
216 205 208 214 212 203 214 190 200 212 224 246 228 244 265 236 241 241 233 230 231 230 226 226 222 216 211 207 203 203 201 200 196 193 194 195 200 203 191 179 184 189 192 193
237 216 208 215 213 200 178 156 186 206 218 240 227 222 259 221 222 233 232 229 231 231 230 230 227 216 212 203 198 197 197 200 196 194 196 198 200 193 181 184 189 191 192 193
230 223 209 188 191 192 185 177 194 204 214 233 203 213 244 222 215 218 228 233 232 229 226 227 223 214 209 201 197 194 195 199 196 195 198 200 201 196 193 191 192 190 190 194
216 216 200 189 196 193 196 192 200 201 206 224 183 218 240 225 219 222 228 234 235 231 227 227 223 215 211 206 197 193 195 198 195 195 200 201 200 199 200 195 193 193 196 196
228 233 199 203 187 176 188 202 196 186 182 204 219 250 287 237 232 231 233 234 236 234 230 229 225 214 210 206 201 196 195 196 195 196 197 199 198 198 198 194 191 193 191 188
247 249 229 197 176 193 189 177 177 197 197 220 231 230 228 212 218 222 225 230 234 232 231 227 222 216 211 207 202 195 195 196 195 194 196 198 199 199 196 190 192 191 188 183
278 246 259 187 191 192 178 186 186 190 196 192 218 244 217 200 204 213 222 227 228 228 227 223 219 212 204 196 191 191 192 191 190 192 193 193 195 194 191 192 193 191 187 183
257 253 243 222 219 195 176 178 178 192 206 195 203 254 245 207 213 215 227 231 231 228 223 217 207 193 187 188 187 186 187 188 189 187 186 190 188 187 190 193 191 187 186 186
306 293 278 220 200 186 193 187 197 201 183 185 197 249 278 227 245 244 239 241 239 229 216 206 194 193 195 193 188 186 186 186 181 178 182 185 186 187 191 191 187 185 185 184
312 229 221 229 248 236 225 221 208 202 211 218 223 237 267 271 256 258 253 245 235 230 215 208 212 209 204 198 189 185 185 177 172 175 181 187 189 190 190 187 183 184 183 183
300 248 249 268 272 254 245 229 218 218 219 220 231 231 245 249 248 250 248 253 252 238 225 224 223 218 207 201 193 185 182 174 171 176 184 190 186 182 180 180 180 180 181 183
295 252 260 271 266 257 261 239 224 223 224 230 241 243 238 246 247 246 232 225 248 255 247 238 231 223 218 209 198 188 184 179 173 180 185 180 175 175 178 178 176 175 177 177
226 230 248 256 271 276 249 226 215 216 218 219 231 235 216 236 247 247 234 226 235 247 251 245 235 227 225 215 197 192 184 174 176 181 178 174 173 175 176 172 172 175 176 173
212 207 233 260 245 231 238 213 223 228 231 226 237 244 211 232 240 240 225 223 241 251 254 255 251 244 232 208 186 170 163 170 176 178 177 173 171 172 168 169 174 173 171 173
204 201 222 233 246 267 282 259 211 217 234 239 249 255 247 252 249 251 246 235 240 241 242 241 240 240 224 196 174 156 161 169 176 182 181 176 171 169 168 171 172 166 165 166
194 193 210 221 231 242 264 298 290 212 238 267 257 266 264 180 234 251 262 259 261 262 257 250 247 236 214 196 165 161 169 176 188 188 179 171 168 169 170 170 162 154 157 160
178 197 211 220 238 261 279 309 72 183 248 291 264 254 235 221 238 261 256 252 251 254 252 240 225 222 218 186 167 171 176 192 188 168 159 161 165 166 162 155 150 149 146 145
193 194 207 204 223 246 300 39 171 264 294 301 289 267 254 252 258 268 254 249 250 253 248 229 220 233 213 177 171 178 192 183 155 151 154 156 158 155 150 147 146 147 147 147
214 203 204 209 230 261 255 245 256 267 282 288 289 288 280 277 275 273 264 253 250 246 243 232 214 224 218 186 180 185 186 155 148 149 152 151 148 148 150 150 150 148 149 151
262 232 224 252 261 270 273 275 278 276 279 283 284 286 279 278 279 276 269 257 250 247 240 227 200 203 226 206 188 181 163 153 149 151 152 150 149 146 144 145 150 154 158 157
241 238 242 255 269 283 275 267 276 285 287 289 290 283 272 271 279 277 272 260 248 245 239 217 203 205 214 191 177 165 156 149 147 148 149 148 148 147 144 141 149 155 164 166
227 223 234 253 258 266 276 282 282 281 284 285 288 293 291 272 273 276 269 256 241 232 230 212 199 186 185 169 167 163 155 151 148 149 151 151 149 147 144 138 118 109 126 138
Height
1422 1426 1422 1421 1424 1428 1432 1436 1437 1434 1431 1435 1437 1436 1432 1430 1432 1433 1433 1435 1437 1439 1443 1446 1450 1453 1457 1460 1464 1467 1471 1476 1480 1484 1487 1491 1494 1498 1502 1506 1510 1514 1518 1521
1418 1414 1410 1416 1421 1426 1429 1432 1433 1432 1429 1431 1433 1432 1427 1425 1425 1425 1426 1427 1429 1432 1435 1439 1442 1446 1449 1452 1456 1460 1464 1468 1472 1476 1479 1484 1488 1492 1496 1501 1505 1509 1513 1517
1404 1400 1405 1412 1417 1421 1423 1426 1429 1431 1429 1428 1431 1430 1424 1418 1418 1418 1419 1420 1422 1424 1427 1431 1434 1437 1441 1444 1448 1452 1456 1460 1464 1469 1474 1479 1484 1488 1491 1495 1498 1503 1507 1511
1399 1398 1401 1405 1408 1413 1415 1417 1424 1428 1432 1434 1433 1437 1422 1416 1414 1413 1412 1413 1414 1417 1420 1423 1426 1429 1432 1436 1441 1444 1448 1452 1456 1461 1465 1469 1473 1476 1480 1485 1490 1496 1501 1506
1389 1390 1394 1396 1397 1404 1408 1411 1420 1425 1430 1434 1432 1435 1421 1413 1411 1405 1404 1404 1406 1408 1411 1414 1417 1421 1425 1429 1433 1437 1440 1444 1448 1452 1456 1461 1465 1470 1475 1480 1485 1490 1495 1500
1385 1385 1387 1389 1393 1399 1405 1412 1418 1422 1429 1430 1424 1432 1419 1410 1401 1398 1396 1396 1398 1400 1403 1406 1409 1413 1417 1421 1425 1429 1432 1436 1440 1444 1448 1453 1457 1463 1468 1472 1478 1483 1488 1493
1384 1382 1381 1384 1391 1396 1400 1410 1419 1421 1422 1417 1414 1419 1404 1394 1390 1389 1390 1390 1391 1394 1396 1399 1402 1405 1409 1413 1417 1420 1424 1428 1432 1436 1441 1445 1450 1455 1460 1465 1470 1475 1481 1485
1382 1379 1377 1378 1381 1386 1390 1397 1404 1408 1410 1412 1411 1407 1393 1383 1381 1381 1383 1384 1386 1388 1390 1392 1395 1398 1401 1405 1409 1413 1416 1420 1425 1429 1433 1438 1443 1448 1453 1459 1463 1468 1473 1478
1384 1376 1372 1372 1374 1380 1386 1389 1392 1401 1405 1408 1407 1399 1389 1379 1378 1378 1378 1379 1379 1381 1383 1386 1388 1392 1395 1398 1402 1405 1409 1413 1417 1421 1426 1431 1436 1441 1446 1451 1457 1462 1467 1473
1385 1381 1372 1370 1372 1374 1378 1383 1391 1396 1399 1399 1398 1396 1386 1377 1373 1372 1373 1372 1372 1375 1377 1380 1383 1386 1389 1392 1395 1399 1402 1406 1410 1415 1419 1424 1429 1434 1439 1445 1450 1456 1461 1467
1386 1383 1375 1371 1370 1372 1379 1382 1382 1387 1390 1391 1393 1386 1368 1365 1364 1365 1365 1365 1367 1370 1372 1375 1378 1381 1384 1387 1390 1393 1397 1400 1404 1408 1413 1418 1423 1428 1433 1439 1444 1450 1455 1461
1386 1383 1378 1372 1368 1367 1371 1377 1381 1385 1388 1388 1387 1378 1357 1359 1358 1359 1361 1362 1364 1366 1369 1372 1374 1377 1380 1382 1385 1388 1392 1395 1399 1403 1408 1412 1417 1422 1427 1432 1438 1444 1449 1455
1385 1385 1381 1372 1374 1373 1373 1375 1379 1382 1386 1387 1384 1374 1357 1358 1359 1359 1359 1360 1361 1363 1366 1369 1371 1374 1376 1379 1382 1385 1388 1391 1395 1399 1403 1407 1412 1416 1421 1427 1432 1438 1444 1449
1384 1385 1385 1379 1374 1375 1374 1375 1377 1381 1381 1383 1378 1369 1360 1359 1358 1358 1357 1358 1359 1361 1364 1366 1368 1371 1374 1376 1379 1382 1385 1388 1391 1395 1399 1403 1407 1411 1416 1422 1427 1433 1438 1443
1385 1385 1381 1377 1373 1373 1371 1370 1372 1375 1374 1376 1368 1367 1361 1359 1358 1357 1357 1357 1358 1359 1361 1363 1366 1368 1371 1374 1376 1379 1382 1385 1388 1391 1394 1398 1403 1407 1412 1417 1422 1427 1433 1438
1386 1385 1381 1376 1370 1369 1368 1364 1364 1365 1366 1366 1363 1361 1356 1355 1355 1355 1355 1356 1357 1358 1360 1362 1364 1366 1369 1371 1374 1377 1379 1382 1385 1388 1391 1395 1399 1403 1407 1412 1417 1422 1427 1433
1387 1387 1383 1376 1370 1367 1365 1355 1354 1355 1353 1354 1354 1350 1355 1355 1355 1355 1355 1355 1356 1357 1359 1360 1362 1364 1366 1369 1371 1374 1376 1379 1382 1384 1388 1391 1395 1399 1403 1408 1413 1417 1422 1427
1384 1385 1383 1377 1372 1372 1355 1348 1350 1349 1348 1348 1347 1349 1351 1351 1351 1351 1351 1352 1353 1355 1356 1358 1359 1361 1363 1366 1368 1371 1373 1376 1378 1381 1384 1387 1391 1395 1399 1404 1408 1413 1418 1422
1377 1380 1381 1377 1372 1363 1352 1348 1347 1347 1346 1346 1346 1347 1348 1348 1348 1347 1347 1349 1350 1352 1353 1355 1356 1358 1360 1362 1364 1367 1369 1372 1375 1378 1381 1384 1387 1391 1395 1400 1404 1409 1413 1418
1372 1375 1379 1377 1371 1360 1349 1344 1341 1344 1346 1344 1345 1345 1347 1347 1349 1343 1343 1345 1346 1347 1349 1350 1352 1353 1355 1358 1360 1362 1365 1368 1370 1374 1377 1381 1384 1388 1392 1396 1400 1405 1410 1414
1372 1374 1375 1374 1369 1356 1347 1342 1341 1349 1345 1341 1341 1341 1343 1343 1341 1339 1340 1340 1341 1343 1344 1345 1346 1348 1350 1353 1355 1357 1360 1363 1367 1370 1374 1377 1381 1385 1389 1393 1397 1402 1406 1410
1368 1371 1371 1369 1366 1357 1344 1343 1346 1345 1341 1339 1337 1336 1336 1335 1334 1335 1335 1335 1336 1337 1338 1340 1341 1342 1345 1348 1350 1352 1356 1359 1363 1366 1370 1373 1377 1381 1385 1389 1394 1398 1402 1407
1364 1362 1361 1360 1354 1345 1342 1342 1341 1340 1339 1336 1334 1332 1331 1330 1329 1329 1329 1329 1330 1332 1333 1334 1336 1337 1339 1342 1345 1348 1351 1355 1358 1362 1365 1370 1374 1378 1382 1386 1390 1394 1399 1403
1359 1356 1357 1354 1346 1342 1339 1338 1337 1336 1335 1333 1330 1328 1327 1325 1324 1323 1323 1323 1324 1326 1327 1329 1330 1332 1334 1337 1340 1343 1347 1350 1354 1357 1361 1366 1370 1374 1379 1383 1387 1391 1394 1398
1356 1355 1353 1349 1344 1340 1334 1334 1333 1332 1330 1328 1325 1324 1322 1320 1318 1318 1317 1317 1318 1320 1321 1324 1325 1327 1329 1332 1335 1339 1343 1346 1350 1354 1358 1362 1367 1371 1375 1380 1384 1388 1391 1395
1348 1350 1349 1343 1339 1339 1332 1329 1329 1327 1324 1322 1320 1317 1316 1315 1314 1313 1312 1313 1314 1315 1317 1319 1321 1323 1325 1328 1331 1335 1339 1342 1346 1350 1354 1359 1363 1368 1372 1376 1381 1385 1389 1392